Terug naar catalogus

STARLINK-4452

ActiefCommunicatieSSO
NORAD 53658·PAYLOAD·🇺🇸 United States

Gelanceerd Aug 31, 2022 vanaf Vandenberg Space Force Base

Loading…

Volgende Passages (komende 24 uur)

TLE

VersSource: CelesTrak SupGP

Epoch: Sep 14, 2026, 21:28 UTC

1 53658C 22105L   26257.89493056 -.00007870  00000+0 -24439-3 0  2578
2 53658  97.2844 134.6516 0001528  93.9235 289.4746 15.33430052    13

Volg STARLINK-4452 in realtime met AllMySat

Download on the App Store